Theta_e
303 303 304 304 304 303 303 304 305 305 304 303 302 303 302 302 303 302 303 305 305 306 307 306 305 306 306 306 307 307 308 308 309 309 308 309 309 310 311 311 312 312 313 314 314 315 317 317 317 316 314 311 311 311 311 312 317 321 323 324 323 324 325 321 321 325 323 323 324 323 324 322 321 322 322 320 320 319 318 321 324 321 317 320 320 315 320
303 303 304 304 303 303 303 304 304 304 304 303 303 303 303 302 303 303 302 304 305 306 306 305 305 306 306 306 306 307 307 307 308 308 308 309 308 308 309 310 311 311 312 313 313 314 317 316 314 313 313 312 311 311 311 312 316 320 323 323 321 324 327 322 320 321 319 319 322 321 322 322 322 323 323 321 321 320 319 323 324 320 318 320 318 315 323
303 303 303 304 303 303 303 304 304 304 304 303 303 303 303 302 303 303 302 303 304 305 305 304 304 305 306 305 305 305 306 306 307 308 308 309 308 308 309 309 309 310 311 313 312 312 314 314 313 312 312 312 311 310 311 311 314 318 321 320 319 324 329 324 319 320 318 318 322 323 322 322 323 324 323 322 322 320 319 320 318 318 323 321 316 319 334
303 303 303 303 303 303 303 303 304 304 304 303 303 303 303 303 302 303 303 303 303 304 304 304 304 304 305 305 305 305 305 306 307 308 309 308 308 308 308 308 309 308 309 311 312 311 312 312 313 312 311 311 311 310 311 311 314 318 318 316 319 325 330 326 322 323 321 321 324 325 323 322 321 321 322 323 323 321 320 318 316 322 327 320 319 327 331
303 303 303 303 303 303 303 303 304 304 304 304 303 303 303 302 302 302 303 303 303 303 303 303 304 304 304 304 305 305 305 306 307 308 308 308 307 308 308 308 308 308 308 309 311 311 312 311 312 311 311 311 310 310 310 311 314 317 314 314 321 325 326 326 324 324 322 322 322 322 322 322 322 321 321 322 323 322 320 318 320 328 325 316 326 338 327
304 304 304 304 303 303 303 303 303 304 304 304 304 303 302 302 302 303 303 303 304 303 303 303 304 304 304 304 305 305 305 305 306 307 307 307 307 308 309 308 308 308 308 309 311 312 312 312 312 310 311 311 310 310 311 311 312 313 311 313 319 322 324 325 322 320 320 319 320 320 321 322 322 322 321 320 322 322 319 320 324 329 322 316 329 340 329
304 304 304 304 304 303 303 303 303 303 304 304 304 303 302 302 303 303 303 303 303 303 303 304 304 304 304 305 305 304 304 305 305 305 305 306 307 307 308 308 307 307 307 308 310 311 311 313 312 310 311 311 310 311 312 312 311 310 310 312 315 320 326 325 319 318 319 318 320 322 321 321 322 322 321 320 321 321 320 322 324 325 323 322 332 339 332
304 304 304 304 304 304 303 303 303 303 304 304 304 303 303 303 303 303 303 303 303 303 303 304 304 303 304 305 305 304 304 304 304 305 305 305 306 306 307 306 306 307 307 308 308 309 310 311 311 310 310 310 310 312 313 312 310 309 310 312 314 317 323 323 318 319 320 319 321 321 320 321 321 321 321 320 320 321 320 321 323 323 324 324 328 334 333
304 304 304 304 304 304 303 303 303 303 303 303 303 303 303 302 302 302 302 302 303 304 304 303 303 303 303 305 304 303 304 304 304 304 305 305 306 306 305 306 305 306 307 307 307 308 308 309 309 309 309 309 310 311 312 310 310 311 312 313 314 317 321 322 321 321 322 321 320 319 319 321 321 321 323 322 320 320 320 322 324 323 324 325 324 325 328
303 304 304 304 304 304 303 303 303 303 303 303 303 303 303 302 302 302 302 302 303 303 303 303 303 303 303 304 304 303 303 304 304 304 305 306 306 305 305 305 305 306 306 307 307 308 308 308 309 309 309 309 309 310 310 310 310 311 312 313 316 318 319 321 321 323 325 321 318 318 321 322 321 320 322 322 321 322 321 321 325 325 324 324 323 322 326
303 304 304 304 304 303 303 303 303 303 303 303 303 303 303 302 302 302 302 302 303 303 303 303 303 303 303 303 303 303 303 303 304 305 306 306 305 305 305 306 306 306 307 307 308 308 308 309 309 309 310 310 310 310 310 309 309 310 311 313 317 319 319 320 322 324 325 321 318 321 324 324 323 321 323 326 323 322 323 322 324 325 325 324 325 326 328
303 303 304 304 303 303 303 303 303 303 303 303 303 303 303 303 302 303 303 303 303 303 302 303 303 303 303 303 303 303 303 303 304 304 305 305 304 305 305 306 307 307 307 307 308 308 309 310 310 310 310 310 310 309 309 309 309 310 310 311 314 316 318 321 323 324 325 323 322 326 327 325 323 321 325 330 328 322 323 324 324 325 325 324 326 328 329
303 303 303 303 303 303 303 303 303 303 303 303 303 303 303 303 303 303 303 303 303 302 302 303 303 303 303 303 303 304 304 304 304 304 304 304 304 305 305 306 307 307 307 307 307 308 310 312 312 312 312 311 311 310 309 309 309 310 310 310 311 313 315 319 321 323 325 326 327 328 327 324 324 326 331 336 338 335 331 325 321 324 325 325 326 327 329
303 303 303 303 303 303 303 303 303 303 303 303 303 303 303 303 303 303 303 303 303 303 303 303 303 303 303 303 304 304 303 303 303 303 304 304 305 305 305 306 306 307 307 307 308 309 312 312 313 314 314 313 313 312 311 310 310 310 310 310 310 311 314 317 319 321 324 326 327 327 324 324 331 338 336 336 338 337 336 335 331 331 331 328 325 325 330
303 303 303 303 303 303 303 303 303 303 303 304 303 303 303 303 303 303 303 303 303 304 303 303 303 304 304 304 304 303 303 303 303 304 304 304 304 305 305 305 306 306 306 308 309 311 312 311 312 313 313 313 313 314 313 313 312 311 310 310 310 311 313 316 317 320 323 323 324 326 326 328 334 337 333 332 333 333 334 335 337 339 342 336 325 322 332
303 303 303 303 303 303 303 303 303 303 303 304 303 303 303 303 303 303 303 303 303 304 304 303 303 303 303 303 303 303 303 303 303 303 303 304 304 305 305 305 306 306 307 308 310 311 311 311 312 312 313 313 313 314 314 314 315 314 311 310 311 311 312 313 315 320 323 322 322 324 326 330 335 334 331 331 332 333 332 332 332 338 345 339 330 324 331
303 303 304 303 303 303 303 303 303 303 303 304 303 303 303 303 303 303 303 303 303 303 303 303 303 303 303 303 302 303 303 304 303 303 304 304 304 304 304 306 306 306 307 309 310 310 310 311 312 312 313 314 313 314 314 314 319 321 315 311 311 311 313 314 314 318 322 323 324 324 324 328 333 332 332 331 332 332 331 328 330 337 339 337 336 331 328
303 303 304 304 304 303 303 303 303 303 303 304 304 304 303 303 303 303 303 303 303 303 303 303 303 303 303 303 303 303 303 304 304 304 304 304 304 305 305 305 305 306 308 309 309 309 310 311 312 312 313 313 313 314 314 315 320 323 319 316 314 312 312 314 314 316 319 322 323 325 328 333 334 332 331 331 332 330 327 329 334 334 334 338 340 336 327
303 303 303 304 304 304 304 303 303 303 303 304 304 304 303 303 303 303 303 303 303 303 303 302 303 303 303 303 303 303 303 303 303 304 304 304 305 305 304 304 305 307 308 309 309 310 310 311 312 311 312 314 315 315 315 315 317 319 319 320 320 317 315 316 316 316 320 323 324 326 330 332 331 331 330 330 333 333 332 331 331 330 334 342 344 341 334
302 303 304 304 305 305 305 304 304 303 303 303 304 304 303 303 303 303 303 303 303 303 303 302 303 303 303 303 303 303 303 303 303 303 304 304 305 304 304 305 306 307 308 308 309 309 309 310 311 311 311 313 314 314 313 313 314 316 316 318 320 321 321 322 321 320 325 329 329 329 333 332 330 333 334 332 333 335 331 328 330 333 338 342 343 343 341
303 304 305 305 305 305 305 305 305 304 304 303 303 304 303 303 303 303 303 303 303 303 303 302 303 303 303 303 303 303 303 303 303 303 303 304 304 304 304 305 305 305 307 308 308 309 309 309 310 311 311 312 313 312 313 313 312 313 315 317 319 322 325 328 329 327 330 334 332 331 334 332 329 333 336 332 329 329 327 328 331 334 336 337 340 343 343
304 305 306 306 306 305 305 305 305 305 304 304 303 303 303 303 303 303 303 303 303 303 303 303 302 302 302 303 303 303 303 303 303 303 303 303 304 304 304 304 304 304 306 307 308 308 308 308 308 310 311 311 312 312 312 312 312 313 316 319 320 322 324 326 328 329 331 335 336 333 332 330 328 329 330 328 327 327 326 326 328 330 331 333 336 340 341
305 307 307 306 306 306 306 306 306 305 305 304 304 304 303 303 303 303 303 303 303 303 302 302 302 302 302 303 303 303 303 303 303 304 304 304 304 304 304 304 304 304 304 305 306 308 308 308 308 309 310 310 311 311 310 311 312 313 315 316 318 319 319 320 323 328 330 332 334 332 331 330 328 327 327 327 327 327 325 324 325 327 328 330 333 336 337
306 307 306 306 306 306 307 306 306 306 306 305 304 304 303 303 303 303 303 303 303 302 302 302 302 303 303 303 304 304 304 304 304 304 304 304 304 304 304 304 304 304 305 305 306 307 308 309 309 309 310 310 311 310 309 310 311 313 314 315 315 317 317 318 321 327 330 331 332 333 331 329 327 327 327 327 327 327 325 324 325 327 328 330 332 334 335
307 307 306 305 306 307 307 307 306 306 306 305 305 304 304 304 303 303 303 303 302 302 302 302 303 303 303 304 304 304 304 304 305 304 305 304 304 304 305 305 305 305 305 306 306 307 308 309 309 309 309 310 310 311 311 310 312 313 313 313 314 315 315 315 317 322 329 333 333 332 330 328 326 326 326 326 327 327 326 324 325 328 329 329 330 333 334
307 306 305 306 307 308 308 307 307 306 306 306 305 305 304 304 303 303 303 303 302 302 302 302 303 303 304 304 304 304 304 304 304 304 304 305 305 305 305 305 305 305 305 306 306 307 308 309 309 309 309 310 309 310 310 311 311 311 311 310 311 312 313 312 313 318 326 332 331 331 331 330 327 326 325 325 326 327 327 326 325 326 329 331 331 332 332
305 305 306 307 307 308 308 307 307 306 306 306 305 305 304 304 304 303 303 302 302 302 303 303 303 303 303 304 305 305 305 305 305 305 305 305 305 305 305 305 305 305 305 306 306 306 307 308 309 309 309 310 309 309 309 309 309 309 309 309 310 312 313 313 314 317 325 332 332 331 334 333 328 326 326 327 327 326 326 326 325 324 326 330 332 334 334
304 305 307 308 309 309 309 308 306 306 306 306 305 304 304 304 304 304 304 303 302 302 302 303 303 303 303 304 305 306 306 306 306 306 306 306 305 305 305 305 305 305 305 306 306 306 308 308 309 309 310 310 310 310 310 309 308 309 310 310 311 313 314 315 316 319 326 331 331 328 330 331 328 326 327 328 328 325 324 325 326 325 325 326 330 335 337
305 305 307 309 311 310 309 308 307 306 305 306 306 305 304 304 304 304 304 303 303 303 302 302 302 303 304 305 306 306 306 307 307 307 307 307 307 307 306 305 306 306 306 306 306 306 307 307 308 309 310 310 309 309 309 310 310 311 312 312 313 314 314 315 316 318 322 327 328 327 328 329 327 326 327 328 327 324 324 325 325 325 325 325 327 330 334
305 306 308 310 311 311 310 309 308 307 306 305 305 304 304 305 305 305 304 303 303 303 303 302 303 304 304 305 306 306 307 307 307 308 308 308 308 308 308 307 307 306 306 306 306 306 306 307 307 308 309 309 309 309 309 310 311 311 312 313 314 314 314 314 316 318 322 327 329 327 326 326 326 326 327 328 325 324 325 326 325 324 324 324 324 325 328
306 308 310 310 312 312 311 309 309 308 307 306 305 305 304 305 306 305 304 303 303 303 303 303 303 304 304 305 305 306 307 308 308 309 310 310 310 309 309 308 308 307 306 306 306 306 307 308 309 309 310 310 309 309 308 309 311 312 312 313 314 313 313 314 316 319 324 327 328 326 325 325 324 324 325 326 325 324 324 324 323 323 322 322 321 320 321
308 311 312 312 312 312 311 310 309 309 308 308 307 307 306 306 306 306 304 304 303 303 303 303 304 304 305 305 306 306 307 308 309 310 311 311 311 311 310 309 309 309 308 307 307 307 307 308 308 309 310 310 310 310 309 310 311 312 312 312 313 314 315 316 318 322 325 327 326 325 325 324 324 324 324 324 324 324 322 320 321 322 321 320 320 318 316
310 312 312 312 313 312 311 310 309 309 309 309 309 308 308 308 307 306 305 304 304 304 304 303 304 304 305 305 306 307 308 309 310 311 311 311 311 311 311 310 310 309 309 308 308 309 309 309 310 310 310 310 311 311 311 311 312 312 313 314 315 317 318 320 322 323 325 326 325 325 325 324 324 324 324 323 323 323 321 320 321 322 322 320 320 319 317
311 312 312 313 313 313 311 310 309 310 310 309 309 309 309 309 308 307 306 305 305 305 304 303 303 304 305 306 308 309 309 309 310 312 312 311 310 310 311 310 309 309 309 308 309 311 312 312 313 313 313 313 313 313 314 314 315 315 315 316 317 319 321 322 323 323 325 326 325 325 325 324 324 324 324 323 323 323 322 321 322 323 322 321 321 321 320
312 312 312 313 313 313 312 311 310 310 310 310 310 310 309 309 309 309 308 306 305 305 304 304 304 305 306 307 309 309 309 309 310 312 313 312 311 312 312 310 309 310 311 309 309 312 314 314 314 315 316 315 315 315 316 317 317 316 315 315 317 321 323 323 323 324 325 325 325 324 325 325 325 325 324 323 323 322 322 322 322 322 321 321 321 321 321
311 311 312 313 313 313 312 311 311 311 310 310 310 310 310 309 309 309 309 307 306 304 303 303 305 306 306 308 309 309 308 310 311 312 313 313 313 313 313 312 312 312 312 311 312 314 315 314 315 316 316 316 316 317 316 316 315 314 314 316 319 322 323 323 323 324 324 324 324 323 323 324 323 323 322 322 322 322 321 322 322 322 322 322 322 322 322
311 312 313 313 313 313 312 312 311 311 310 310 310 310 310 310 309 309 308 307 306 305 303 303 304 305 306 308 308 308 309 311 312 312 313 314 314 313 312 313 315 315 314 314 315 315 315 315 315 316 316 315 315 314 313 313 314 314 317 319 320 320 321 323 323 323 323 323 323 322 322 322 323 323 323 324 324 323 323 324 325 324 325 325 325 325 324
312 312 313 313 313 313 312 312 311 311 310 310 311 310 310 310 309 308 307 306 306 305 304 303 304 304 305 306 307 308 309 311 312 313 313 313 314 314 313 314 316 315 313 314 315 314 314 315 314 313 313 313 312 312 314 316 317 318 320 319 318 319 322 323 323 323 323 324 324 323 324 324 325 325 325 325 324 324 325 326 326 326 326 327 327 327 326
313 313 313 314 314 313 313 312 312 311 311 312 312 311 311 310 310 309 308 307 306 305 304 303 303 304 304 306 307 308 309 310 311 313 314 314 313 313 313 314 314 313 313 314 313 312 313 314 312 310 311 312 312 314 316 318 319 321 320 318 318 319 322 323 323 323 323 323 323 324 324 325 325 325 325 325 325 325 326 326 326 326 326 327 327 327 327
313 314 314 314 314 313 313 313 312 312 312 312 312 312 311 311 311 311 310 309 308 306 305 305 306 306 306 306 308 310 310 310 311 313 313 312 312 313 312 312 312 312 313 313 311 309 310 311 310 310 312 313 314 315 315 317 319 320 319 317 317 319 321 322 323 323 323 323 324 324 325 325 325 326 326 326 326 326 326 326 326 326 326 327 327 327 327
313 314 314 314 314 314 314 314 314 313 312 312 313 313 313 312 312 311 311 312 312 310 308 308 309 310 309 308 308 310 311 311 311 312 311 310 311 312 311 310 309 310 313 313 310 307 307 310 312 312 312 313 314 315 316 318 320 321 319 318 317 318 319 321 322 323 323 323 324 324 325 325 325 325 326 326 326 327 327 327 327 326 327 327 327 327 328
313 314 314 314 314 314 314 314 314 313 313 313 314 314 314 314 314 313 312 313 314 313 312 311 313 314 314 312 310 311 311 311 312 312 311 310 311 311 309 308 308 311 315 315 311 309 310 313 317 317 315 314 315 316 318 319 320 321 321 321 320 319 320 321 322 323 323 324 324 324 324 325 325 325 325 326 326 326 327 327 327 327 327 327 328 328 328
314 314 314 314 314 314 315 314 314 314 315 314 314 315 315 316 316 317 316 315 315 315 316 316 316 317 317 315 314 313 313 313 312 312 311 311 311 310 309 309 311 314 315 313 311 311 314 317 320 320 319 318 318 319 319 320 320 320 321 321 321 322 322 322 323 323 323 323 324 324 324 324 324 324 325 325 325 325 326 326 326 327 327 327 328 328 328
315 314 314 314 313 313 315 315 314 315 316 316 315 316 317 317 316 317 317 317 316 317 317 317 317 318 318 317 316 316 316 315 315 314 314 314 313 312 313 314 316 316 315 313 312 314 317 319 319 319 318 318 319 319 319 320 320 320 320 320 320 321 322 322 323 323 323 323 323 323 323 323 324 324 324 324 325 325 325 325 325 326 327 327 326 326 326
314 313 314 315 314 313 315 316 315 315 316 316 315 315 316 316 316 316 316 316 316 316 316 316 317 318 318 318 318 318 317 317 317 317 317 317 316 316 316 318 317 316 315 314 315 317 319 319 319 318 318 318 318 318 318 319 319 319 318 318 318 319 320 320 320 321 321 321 321 322 323 323 324 323 324 324 324 325 325 325 325 324 324 324 324 324 324
315 312 313 315 315 314 314 315 315 315 315 314 314 314 314 314 314 315 315 315 315 315 316 317 317 317 317 317 318 318 317 317 318 317 317 318 319 317 317 317 316 315 315 317 318 319 321 320 319 318 318 318 317 317 317 318 317 317 317 317 317 317 317 317 318 318 318 318 319 321 323 323 323 323 323 323 323 323 323 322 322 321 320 320 321 322 322
315 313 312 314 315 314 313 314 315 314 313 313 313 313 313 313 313 314 314 315 315 316 316 316 317 317 316 316 317 317 316 317 318 317 317 319 320 318 316 316 315 314 316 319 320 321 321 320 319 319 318 317 317 317 316 316 316 316 316 316 316 316 317 317 317 318 318 318 318 319 321 322 322 322 322 322 322 321 320 320 320 319 319 319 319 320 320
315 314 313 313 313 314 314 315 314 313 313 313 313 313 313 313 313 314 315 315 315 316 316 316 317 318 317 316 317 317 316 316 317 317 316 318 319 317 316 317 316 315 316 319 320 320 320 319 319 319 318 317 316 316 315 315 315 315 315 316 316 316 316 317 317 317 318 318 318 318 319 320 321 321 321 321 322 321 320 320 319 319 318 318 317 317 317
315 315 314 313 313 313 314 314 313 313 313 314 313 313 313 313 313 314 315 315 315 316 316 315 316 319 318 316 317 318 316 316 317 317 316 316 318 317 316 317 317 316 317 318 318 318 318 319 319 318 317 315 315 314 314 314 314 314 315 315 316 316 317 317 317 317 317 317 317 317 318 318 319 320 320 320 320 319 318 317 317 316 316 316 315 316 316
315 314 314 314 314 315 314 314 314 313 313 313 313 313 313 313 313 314 314 315 315 315 316 315 316 317 316 316 318 319 318 316 317 317 316 317 317 317 316 316 316 316 316 317 316 316 317 318 318 317 316 315 315 315 314 314 314 314 314 315 315 316 316 316 316 316 316 316 315 316 316 316 317 318 318 318 317 316 315 315 315 315 315 315 315 316 316
315 315 314 314 314 314 314 314 314 314 313 313 313 313 313 313 313 314 314 314 314 315 315 314 315 316 316 316 317 318 317 316 316 317 317 317 317 317 317 317 316 316 316 315 315 315 316 317 318 317 315 314 314 315 315 315 314 314 314 315 315 315 315 316 316 316 316 315 315 315 315 315 316 316 316 315 315 315 315 315 314 315 315 315 315 315 316
314 315 314 314 313 313 313 314 314 313 313 313 313 313 313 313 314 314 314 314 314 314 314 313 314 316 316 315 315 316 316 316 316 316 316 316 316 316 316 316 316 315 315 314 313 313 315 316 316 314 312 311 311 312 313 314 314 314 314 314 314 315 315 315 315 315 315 315 315 315 315 315 315 315 315 315 315 315 315 314 314 314 315 315 314 314 314
Wind_Speed
28 28 29 29 30 29 28 27 25 25 25 27 28 26 19 12 12 16 19 18 18 12 4 5 6 2 7 10 9 9 9 8 9 8 9 7 4 4 3 2 2 2 1 2 2 2 1 2 2 3 4 4 4 14 21 17 10 6 3 3 5 4 1 3 3 3 3 6 6 5 4 6 9 8 7 8 8 8 7 6 4 4 4 3 2 7 8
27 27 28 29 29 29 27 25 23 22 23 24 26 23 17 15 18 15 17 17 16 11 4 5 5 5 9 10 8 8 8 9 11 8 6 6 5 3 3 3 3 3 3 3 3 3 2 3 4 4 2 2 7 17 22 16 8 5 5 6 5 4 1 1 1 2 4 4 5 5 4 2 4 5 7 10 11 11 7 3 4 3 7 8 6 8 7
26 26 27 28 28 27 26 24 21 21 21 21 22 20 17 16 11 10 18 19 14 12 7 5 5 6 9 9 8 8 7 8 12 11 7 8 7 3 4 6 5 5 5 3 4 5 4 2 3 4 3 1 6 15 20 12 6 7 11 12 5 2 1 1 1 5 7 5 5 4 2 3 4 4 8 12 13 15 10 4 4 6 7 9 8 8 6
25 25 26 26 27 26 25 23 21 20 20 19 19 17 14 10 4 5 16 17 10 9 10 9 6 6 8 7 5 6 7 7 10 10 7 12 14 7 4 7 7 6 7 5 3 5 4 3 2 2 4 2 3 12 16 9 8 9 14 16 8 1 1 0 2 3 3 2 5 4 3 4 5 3 7 11 12 15 12 8 8 7 5 7 10 7 5
24 25 25 25 26 25 24 23 21 20 20 19 18 15 10 5 2 4 8 9 7 7 9 11 7 6 7 4 3 6 8 6 7 6 5 11 15 8 2 8 8 6 7 5 2 3 3 2 2 2 3 3 4 11 10 6 10 11 11 13 6 2 3 2 1 3 3 4 10 11 7 5 7 8 8 11 12 14 15 13 10 8 6 11 11 7 7
24 24 24 24 24 24 24 22 20 19 19 19 17 13 7 2 4 7 6 4 3 5 9 11 9 9 8 3 3 6 8 7 7 6 5 9 10 5 3 8 9 7 7 4 2 3 2 1 2 3 3 4 5 8 5 3 11 12 8 8 4 3 2 3 3 7 7 6 11 13 8 6 8 10 12 12 13 17 19 17 11 10 11 14 10 9 9
23 24 24 24 24 24 23 22 20 19 18 18 15 9 5 4 5 7 6 4 5 8 12 13 10 8 7 4 2 5 7 9 8 6 6 7 6 4 4 7 10 9 6 4 2 2 2 2 2 2 4 4 3 4 3 3 10 11 6 5 2 2 2 3 4 7 9 8 9 9 7 6 8 11 12 14 16 18 20 17 13 13 14 13 7 10 11
23 23 23 23 23 23 23 21 20 19 17 17 14 8 6 5 4 7 7 6 9 11 11 8 6 6 7 4 1 3 6 9 9 8 7 7 5 5 6 9 11 9 7 5 4 3 2 2 2 2 4 4 1 1 2 2 7 8 4 3 3 1 2 3 3 5 7 8 7 8 9 9 10 11 12 14 17 18 17 15 13 11 12 11 8 8 9
22 22 22 23 22 22 22 21 19 18 17 16 13 10 9 8 7 9 8 5 6 7 6 4 4 4 3 2 3 5 6 8 10 10 9 7 4 4 8 10 9 7 7 7 7 7 6 5 6 7 6 6 5 4 3 3 5 4 2 2 2 1 1 2 4 3 5 6 6 11 15 13 11 14 14 13 14 13 11 10 10 11 11 11 11 9 7
21 22 22 22 22 22 22 21 19 18 16 15 13 11 11 11 9 8 6 4 4 4 3 3 3 3 1 2 5 6 7 10 10 8 6 5 7 9 10 10 7 4 6 7 8 11 14 15 17 17 14 14 13 13 12 10 5 2 1 2 2 2 1 1 2 1 4 7 7 10 12 10 9 12 10 10 11 10 8 7 9 13 13 11 11 10 8
21 21 21 21 22 22 21 20 19 18 16 14 12 12 12 10 9 8 5 4 3 3 3 1 2 3 5 7 9 8 8 10 8 5 3 7 15 19 17 13 7 4 6 9 11 18 22 22 22 21 19 18 18 18 17 15 12 9 5 2 3 3 2 2 1 2 4 9 9 7 5 5 7 5 4 5 11 12 12 11 9 11 12 11 9 8 9
21 20 21 21 21 22 21 20 19 17 15 13 13 13 11 8 8 8 5 4 4 4 3 4 5 7 10 12 11 8 8 10 9 9 9 10 17 20 17 11 6 6 11 17 21 23 22 17 14 14 15 16 17 17 15 13 14 15 12 8 4 3 3 2 2 3 3 7 6 3 7 7 6 9 9 7 8 9 12 16 14 13 13 12 9 8 10
21 20 21 22 22 22 21 20 19 17 15 13 13 13 10 7 8 9 7 4 5 5 5 7 10 12 13 13 10 9 11 14 15 15 13 11 13 16 15 10 8 12 19 24 24 19 11 6 6 6 7 8 8 10 13 14 15 16 16 13 8 5 3 2 2 3 1 3 2 4 8 8 11 10 8 8 6 4 3 12 16 13 11 11 11 10 10
23 21 20 21 22 21 20 19 19 17 15 13 13 13 10 8 8 11 10 5 4 6 7 6 6 7 9 9 8 9 12 14 14 13 10 9 12 14 14 13 13 17 21 20 17 10 3 2 3 3 3 2 2 4 9 14 16 18 18 15 12 9 5 2 3 3 3 3 5 5 7 11 8 4 4 5 4 4 3 4 10 8 8 10 10 11 11
24 23 22 21 21 21 21 19 18 17 15 14 14 13 11 9 9 11 12 8 5 6 8 7 6 6 7 8 9 9 9 8 7 8 10 11 12 12 13 16 16 18 18 13 6 2 0 1 2 2 2 1 1 3 3 5 9 15 19 17 14 13 10 6 4 4 4 3 5 3 4 6 3 1 4 3 3 4 4 3 5 7 7 9 11 12 12
26 25 24 23 21 21 20 19 18 18 16 14 14 14 11 9 9 10 12 12 8 4 5 7 9 9 9 10 10 9 6 4 4 7 8 6 7 12 18 19 16 14 13 7 1 1 0 1 2 3 3 1 1 3 3 2 3 6 13 16 16 14 10 6 5 5 4 4 5 4 3 5 4 4 8 8 7 4 4 3 5 5 4 5 8 12 12
27 27 26 24 22 21 20 19 18 17 16 15 14 15 13 9 9 10 12 13 11 10 13 15 16 14 9 7 7 6 6 6 6 6 5 5 9 16 19 17 14 11 8 3 0 1 1 2 2 3 3 2 0 2 3 3 3 2 3 9 13 11 8 6 7 6 6 6 5 4 4 4 3 6 10 14 13 3 5 5 6 6 12 14 9 10 12
28 28 27 25 24 22 20 19 18 17 17 16 14 15 14 10 9 9 11 14 11 11 16 16 14 14 10 7 8 8 6 7 7 5 6 8 8 10 13 14 12 8 5 2 0 1 1 3 3 3 3 2 1 2 3 3 3 3 1 3 7 8 7 8 8 7 7 8 6 4 4 3 4 7 10 15 13 1 7 6 5 9 18 22 16 14 16
29 29 28 27 26 23 20 19 18 18 17 15 15 17 14 10 10 10 13 16 13 12 16 15 13 18 18 15 17 16 13 12 10 6 5 5 4 8 15 15 7 3 3 2 1 0 2 2 1 2 2 2 1 1 3 3 3 3 3 2 4 6 6 7 9 8 6 7 5 5 4 2 5 6 7 13 7 4 4 10 17 20 22 22 19 16 15
30 29 29 28 27 26 23 20 18 17 17 16 16 18 16 12 11 11 13 16 17 21 27 25 21 24 23 20 21 20 16 13 11 6 5 6 6 10 12 6 1 2 3 1 1 1 2 2 2 1 1 1 1 1 3 4 5 4 4 5 3 3 4 5 8 8 5 5 6 5 5 2 6 6 4 9 3 5 9 17 24 23 19 16 17 15 9
30 30 30 29 28 27 25 22 18 17 17 17 16 19 20 16 11 11 13 15 17 19 20 17 15 19 21 22 24 24 21 20 17 13 11 12 10 6 4 3 3 3 1 1 1 1 1 1 2 2 1 1 2 2 2 5 6 5 5 5 4 4 4 3 5 6 5 6 6 4 5 1 5 3 1 3 3 9 15 16 18 18 18 17 16 12 4
31 31 31 32 31 28 24 22 20 18 17 17 16 19 21 18 14 12 12 15 18 22 24 24 25 28 30 30 31 31 29 29 29 25 21 17 14 11 11 12 10 6 4 2 1 1 1 2 2 2 2 2 2 2 2 3 4 3 1 2 3 4 3 3 4 5 4 4 4 5 8 7 8 9 7 6 11 16 19 17 14 15 19 18 14 9 4
32 33 34 34 32 28 24 21 20 20 18 17 18 20 21 20 17 15 15 16 21 26 30 30 29 29 30 27 22 20 20 21 22 23 23 20 15 14 18 19 13 9 9 8 5 2 1 2 2 2 3 2 1 2 2 3 3 4 3 3 6 10 11 7 5 5 5 3 3 8 10 9 10 13 14 15 17 19 21 20 17 17 18 15 10 7 4
33 35 35 34 31 28 25 22 20 20 19 18 18 21 22 22 19 17 17 17 17 20 21 21 21 21 20 14 9 8 11 13 14 15 16 19 17 12 15 18 14 10 11 13 12 9 5 2 2 3 2 1 1 1 3 4 4 4 5 5 6 8 9 6 4 7 6 3 4 6 8 9 10 12 17 19 19 18 19 20 17 17 16 13 9 8 7
34 36 35 33 30 28 26 23 19 19 18 18 18 20 22 23 21 18 17 15 14 12 10 12 18 17 11 12 14 16 16 17 17 15 15 21 24 21 18 18 14 11 13 13 12 11 8 4 2 3 4 2 3 2 3 4 3 2 4 5 5 7 11 8 6 9 7 3 4 7 9 9 13 18 20 20 19 17 16 18 16 14 12 11 12 13 13
35 35 34 32 29 27 25 22 19 18 17 17 17 19 22 23 21 20 19 17 16 14 9 12 19 18 14 20 24 22 19 19 18 18 18 20 23 25 24 23 20 18 18 17 14 12 9 4 2 4 4 3 4 3 3 3 3 4 5 8 11 12 10 6 7 10 7 3 4 8 7 6 13 20 22 19 18 16 13 14 16 14 9 10 14 18 19
35 34 33 30 27 26 25 21 19 17 16 16 16 18 21 22 22 22 21 17 13 10 6 8 16 20 24 26 22 16 14 14 12 14 17 18 20 22 24 25 26 24 22 19 16 13 8 5 4 5 5 5 4 4 4 5 5 5 7 12 13 12 8 6 6 8 6 4 6 9 6 2 6 14 20 19 15 12 9 10 14 15 11 9 16 22 23
35 33 31 29 26 25 24 21 18 16 14 14 15 17 19 20 20 21 23 21 19 15 11 14 21 26 27 25 19 14 11 8 7 9 12 14 17 21 24 26 28 26 21 15 10 7 5 5 5 5 4 5 5 5 5 6 6 5 7 12 13 11 10 8 6 7 9 8 9 12 9 5 7 13 19 18 10 7 8 12 12 12 13 10 15 24 27
34 32 30 28 25 24 23 19 17 15 12 11 13 16 18 19 17 17 18 19 22 24 22 21 22 20 17 20 22 16 8 6 8 8 9 10 13 18 22 25 27 26 23 16 10 6 6 8 10 9 7 5 3 3 4 4 5 7 11 16 17 17 18 19 16 14 17 16 12 16 16 12 13 18 20 14 4 3 9 13 12 9 10 13 16 23 26
35 32 29 27 25 24 22 18 15 14 12 10 11 12 14 14 11 10 12 12 16 22 21 14 10 10 16 24 25 17 11 11 10 9 10 13 15 17 19 20 23 25 22 18 13 9 7 8 10 12 13 12 6 2 3 4 4 8 13 17 19 19 22 26 28 25 23 19 13 19 24 23 23 23 24 18 9 5 9 11 10 8 8 12 17 22 25
35 32 28 25 24 24 21 17 15 14 13 12 11 8 7 6 5 5 7 6 9 16 16 12 9 13 19 23 21 17 17 15 10 8 10 12 15 17 18 18 20 22 22 20 18 14 10 9 7 6 12 16 11 4 3 4 5 8 11 15 20 24 26 30 31 28 21 13 15 22 27 29 27 24 24 21 14 8 9 10 7 6 8 13 18 21 21
35 33 29 23 21 21 19 15 14 15 16 15 13 12 11 11 12 11 8 6 9 13 12 7 7 6 7 12 18 19 17 12 7 7 8 10 12 15 19 21 23 23 21 18 13 10 11 14 12 10 15 18 12 3 4 5 6 10 16 21 26 30 32 30 27 23 12 15 23 22 19 20 20 20 22 22 18 14 13 13 9 7 9 15 19 19 17
35 34 30 23 18 17 17 15 15 15 15 15 17 16 13 12 15 16 13 8 9 12 10 4 3 2 4 11 18 16 10 6 6 6 6 6 8 10 14 19 22 20 18 14 9 7 10 14 12 11 17 18 11 3 4 8 11 18 24 26 27 29 28 21 17 14 10 18 18 14 18 21 19 19 23 23 18 16 16 15 13 12 13 17 19 18 15
36 35 30 22 17 15 14 13 13 13 13 15 16 13 8 8 12 16 16 13 10 9 7 4 2 3 5 9 10 7 5 7 6 5 3 4 6 6 6 10 12 12 12 13 10 7 7 8 6 7 9 12 10 5 5 8 13 17 21 25 27 26 20 11 11 12 14 16 12 13 25 29 23 22 24 22 18 16 15 13 13 13 16 19 19 18 16
36 34 28 22 18 15 13 11 10 10 10 12 13 12 11 13 15 14 16 16 11 6 4 5 4 3 4 5 4 4 6 8 5 4 4 4 5 5 3 4 4 5 7 9 7 4 3 4 5 5 3 4 6 6 5 7 11 16 22 27 26 20 11 6 7 10 14 17 15 18 27 29 26 26 25 21 19 19 16 14 13 13 17 20 19 18 17
36 33 27 22 19 16 13 12 11 9 8 10 14 16 16 14 11 7 11 16 13 7 3 3 4 3 2 2 3 6 9 8 5 3 4 3 4 4 3 2 1 2 5 5 3 2 3 3 3 3 3 3 4 4 8 13 16 20 24 22 15 10 6 7 7 8 15 20 22 25 28 27 27 27 25 23 23 22 21 20 18 17 20 21 19 18 17
36 32 27 24 21 16 13 13 14 14 14 15 17 16 12 7 3 2 7 14 17 14 7 3 3 4 4 3 4 6 7 6 5 3 2 2 2 3 2 1 1 1 2 2 2 3 5 4 4 4 4 3 6 12 19 23 24 24 20 10 9 11 4 7 15 21 23 23 23 25 27 27 27 27 26 25 24 23 23 23 21 20 22 21 20 19 19
34 32 28 25 21 16 14 17 19 19 17 14 10 8 5 2 1 4 8 10 12 12 9 5 5 6 6 5 6 7 5 4 5 3 2 2 3 2 2 1 1 2 2 2 2 6 7 4 3 3 4 6 13 20 20 18 17 15 9 10 13 14 8 11 23 28 27 22 21 24 27 27 26 25 26 26 24 22 22 22 20 20 21 21 20 20 20
32 31 28 25 21 17 16 19 20 17 13 9 6 3 3 2 1 3 6 7 5 6 7 6 7 9 9 6 7 9 7 3 2 2 1 3 3 1 1 2 2 2 2 2 3 7 5 2 2 3 3 5 10 15 16 18 16 13 14 14 14 16 16 15 19 23 24 22 22 26 29 28 27 27 27 26 24 23 22 21 20 20 20 20 20 21 21
32 31 27 24 23 20 18 19 19 15 9 6 5 4 2 2 2 2 3 3 3 4 6 6 7 10 12 10 6 5 4 3 3 2 2 3 3 2 1 2 3 3 2 2 3 6 3 2 2 2 3 4 6 9 14 18 16 14 15 15 15 20 24 24 22 21 22 23 25 27 28 29 29 29 27 25 25 24 22 20 19 19 19 19 20 20 20
33 30 25 23 22 21 20 20 19 14 8 5 4 3 2 2 3 2 1 1 1 3 6 6 4 5 9 13 10 5 4 5 4 2 2 2 3 3 1 2 3 3 2 2 1 2 1 2 2 1 3 5 9 13 15 17 18 18 18 16 17 19 21 22 21 21 23 25 25 25 25 26 27 27 25 24 24 24 22 21 19 18 18 18 19 19 20
30 27 23 20 20 20 18 18 17 11 5 3 4 2 1 2 3 2 0 1 2 3 3 5 4 4 3 7 9 7 6 5 1 2 2 2 3 2 1 2 2 1 1 2 2 1 1 2 3 1 3 3 9 15 18 21 23 24 21 19 17 16 15 15 17 20 23 24 24 24 24 24 24 23 22 22 22 23 22 21 20 19 18 18 19 20 21
24 22 19 16 18 18 14 12 13 9 2 1 3 3 2 3 4 2 1 3 6 8 8 9 10 9 5 1 4 4 5 5 2 2 1 1 1 2 1 1 1 1 2 3 3 2 3 4 5 7 9 13 18 20 21 21 24 26 26 24 21 18 16 16 17 19 22 23 24 24 24 23 23 23 22 23 24 24 23 21 20 19 19 19 21 23 23
20 18 14 10 13 15 10 7 9 8 3 1 3 4 3 5 5 3 4 7 9 11 15 19 18 13 7 4 2 1 1 2 3 2 1 1 1 1 1 2 2 2 2 3 2 2 3 5 7 12 20 26 27 26 25 25 27 29 31 30 27 25 23 23 22 23 24 25 26 26 26 26 27 27 26 27 28 28 27 26 26 25 25 26 27 27 27
17 17 12 7 8 12 9 4 5 6 3 2 3 2 3 5 5 4 7 12 13 15 21 25 20 13 10 9 6 3 3 2 1 0 1 1 1 2 2 2 2 2 2 2 2 2 3 5 8 14 23 27 26 25 26 27 28 30 32 32 31 29 28 27 27 26 26 25 27 28 29 30 30 31 30 30 29 30 31 32 32 32 33 33 32 30 29
13 14 9 4 4 9 7 2 2 3 2 4 6 6 6 7 8 9 12 16 16 17 21 22 16 11 10 9 6 5 7 5 2 2 4 2 1 3 3 2 2 4 3 3 4 6 5 4 7 15 22 25 25 27 28 29 29 31 31 30 29 29 29 29 28 27 27 27 28 30 31 31 31 31 32 32 31 32 32 32 32 33 34 34 32 30 29
10 11 8 4 3 5 4 3 4 6 7 10 14 16 14 13 12 15 17 17 16 17 18 15 9 6 9 9 7 6 8 7 3 3 5 2 0 2 3 2 3 4 3 4 6 6 4 6 14 22 25 26 28 30 30 30 31 32 31 30 29 29 29 29 27 27 27 28 28 28 28 29 29 29 31 31 31 30 30 30 30 31 31 31 30 29 28
11 9 6 3 1 1 3 7 10 12 15 18 20 22 23 21 19 22 23 21 18 18 18 14 7 4 7 9 7 3 5 6 4 3 4 3 1 2 4 4 3 3 4 5 6 4 5 11 20 25 27 27 29 30 30 30 31 31 31 31 31 29 29 28 27 26 26 27 28 27 26 26 26 26 28 29 29 27 26 26 27 27 27 27 27 27 27
15 11 8 4 1 3 9 12 11 13 21 27 28 29 30 28 26 26 26 23 19 17 16 14 9 4 4 7 6 3 3 5 4 2 4 4 4 3 3 4 4 5 6 5 5 8 13 19 23 27 28 29 30 30 30 30 30 30 31 31 30 29 29 29 28 27 27 28 29 28 27 26 26 26 27 28 28 27 26 25 25 25 26 25 25 26 26
15 13 12 9 5 6 12 13 9 9 17 26 29 30 30 29 29 29 27 23 21 19 17 14 12 7 3 4 3 3 3 4 3 2 4 5 4 3 4 4 5 6 7 7 9 15 21 23 25 26 27 28 28 28 29 30 30 30 31 31 30 30 30 29 28 28 28 28 28 27 27 27 27 28 28 29 28 26 26 25 26 26 25 25 24 25 25
10 10 12 14 12 10 10 10 7 6 11 17 23 26 28 28 28 28 26 25 24 20 13 8 6 4 3 4 4 3 4 5 3 3 4 4 3 3 5 6 5 6 9 13 18 22 23 24 24 24 24 25 26 25 25 26 27 27 28 28 28 29 29 29 28 29 28 27 26 26 26 26 27 27 26 25 24 24 26 27 26 25 25 24 23 23 24
7 7 11 17 22 22 20 16 13 13 16 21 25 28 30 29 28 26 28 29 26 19 11 8 5 3 3 4 4 3 3 4 4 4 4 4 3 4 5 6 9 11 14 17 21 23 23 24 25 25 25 25 26 26 25 26 26 25 25 25 26 26 26 26 26 26 25 25 25 25 25 24 24 23 23 23 23 24 25 26 24 23 24 23 22 22 23
Wind_Direction
341 341 340 339 338 337 337 336 335 336 338 341 343 342 349 344 315 344 13 14 12 28 65 17 15 7 344 335 320 324 325 333 346 348 349 351 338 329 313 298 358 21 348 348 6 1 6 10 25 77 83 81 46 6 357 353 354 6 15 345 336 338 263 228 277 300 267 269 287 298 267 201 198 212 192 179 190 186 192 204 175 184 213 162 184 248 267
341 342 341 341 341 340 340 338 336 337 340 343 343 341 343 328 314 340 18 26 34 46 47 10 2 336 344 339 327 340 350 348 346 337 335 346 344 328 311 326 6 6 339 354 13 4 32 52 41 55 81 109 48 14 359 358 9 18 13 351 331 329 312 182 320 269 245 269 289 299 311 201 209 224 200 197 197 191 201 179 132 211 208 172 199 237 244
343 344 343 342 343 343 343 341 339 341 342 342 343 340 338 335 319 334 358 11 41 57 50 31 359 335 343 334 323 341 350 349 343 330 334 1 358 320 306 334 3 11 358 15 31 23 47 55 24 32 8 64 58 11 351 351 3 360 4 360 340 257 266 89 149 221 219 222 224 223 275 267 239 214 201 207 200 192 201 192 180 225 208 176 210 239 249
344 344 344 344 344 344 344 344 343 344 342 340 343 342 340 342 324 323 344 354 29 55 45 35 10 335 340 331 319 338 334 338 345 338 349 6 354 328 314 353 11 23 16 16 23 20 29 13 345 14 359 356 38 354 339 337 346 354 8 3 352 158 350 49 170 235 240 273 266 260 325 299 278 264 207 204 207 201 200 207 208 201 177 203 225 216 217
344 344 344 344 345 345 345 346 345 344 341 339 342 345 349 352 328 335 342 341 357 13 16 21 5 327 333 323 285 322 326 333 354 356 360 356 344 325 20 38 32 24 9 1 355 7 4 339 346 28 9 345 342 337 324 327 353 3 13 0 358 86 346 317 46 326 304 311 295 289 298 276 268 280 245 211 205 202 206 218 205 151 164 231 232 184 190
343 343 343 343 343 344 345 345 343 342 339 337 339 344 353 338 307 327 335 327 346 349 339 342 333 315 321 304 278 321 330 339 354 357 343 342 342 332 20 35 28 18 6 349 308 359 359 322 25 39 8 343 344 338 317 349 9 11 12 358 20 125 255 288 6 336 308 297 286 281 283 258 246 260 254 236 218 206 211 219 198 163 201 236 224 176 191
344 343 343 343 342 343 344 344 342 341 338 334 336 339 332 308 293 311 322 307 298 300 302 309 311 311 319 314 310 331 335 338 343 346 334 328 342 349 336 356 1 358 359 350 309 352 5 338 356 11 348 345 353 337 306 346 12 11 3 345 358 139 257 302 342 328 311 299 282 277 291 287 269 262 254 247 236 222 218 218 203 197 224 240 213 181 199
343 344 343 343 343 342 343 344 342 342 339 335 334 328 313 307 289 301 310 296 286 285 286 295 303 312 320 316 312 329 328 332 333 333 321 302 315 353 344 340 345 339 340 334 293 283 308 302 299 326 344 343 335 307 274 308 358 0 345 318 330 347 293 314 351 342 309 298 298 306 309 301 286 274 259 248 244 237 230 222 210 208 227 241 223 198 217
343 343 343 343 344 343 343 343 342 342 340 337 333 321 311 307 298 302 305 293 291 288 280 291 300 303 315 313 329 334 325 327 328 317 299 274 273 339 336 330 330 324 321 312 291 300 315 291 283 294 289 273 270 279 283 309 343 348 308 299 327 321 278 331 24 5 294 294 323 323 317 312 289 268 258 248 243 244 238 224 212 205 210 228 234 225 231
342 342 342 342 342 343 343 343 344 342 339 338 332 317 313 315 312 312 307 293 299 297 284 291 289 289 334 337 324 319 309 317 324 315 301 301 314 326 325 319 318 310 298 297 304 318 317 302 296 291 276 265 264 260 258 262 261 245 279 311 282 221 217 330 26 4 288 292 310 319 322 314 275 259 256 242 234 239 252 247 224 209 200 207 225 226 218
340 340 340 339 340 342 343 343 344 342 338 336 329 315 314 315 309 308 301 279 277 281 283 273 257 291 321 320 313 306 303 310 312 300 310 318 313 314 314 308 301 279 278 297 316 320 313 305 298 289 273 262 255 249 250 250 238 226 224 256 263 234 198 200 152 118 280 290 310 325 301 253 251 289 338 273 235 222 228 239 227 212 212 216 220 213 207
339 338 337 337 338 340 341 341 341 340 338 332 323 318 320 313 296 290 279 272 297 303 293 277 271 287 301 302 301 299 297 300 300 298 298 297 299 304 306 300 285 288 305 315 321 321 316 306 296 284 268 254 246 241 242 241 236 229 218 210 235 251 227 220 169 137 263 295 328 308 234 235 297 334 347 319 264 222 223 234 226 212 218 227 228 217 212
340 339 335 334 336 338 338 339 338 337 336 329 321 320 320 305 283 277 266 265 285 284 283 286 278 276 284 288 290 295 295 297 300 299 293 288 294 299 300 294 286 301 314 319 319 319 318 304 294 285 267 256 244 235 232 231 234 230 219 211 213 218 220 220 194 164 211 296 301 233 247 292 322 329 348 354 340 350 302 252 239 221 208 213 224 227 223
344 341 336 333 334 335 334 335 335 334 331 325 320 318 313 296 274 267 264 262 267 274 288 298 285 273 279 285 291 302 304 303 301 297 287 286 290 292 296 300 306 312 316 316 314 313 307 296 318 320 301 298 303 249 229 225 228 225 217 210 201 200 204 200 208 199 172 225 253 260 296 314 323 337 1 6 342 343 358 258 257 245 204 196 210 225 232
344 341 338 334 332 331 330 331 332 331 328 321 317 315 310 297 280 268 264 265 274 278 268 259 264 281 290 293 298 304 305 304 302 299 295 290 283 287 301 312 319 323 320 312 303 295 308 308 305 305 307 302 290 280 241 224 230 223 217 210 199 197 198 183 190 208 177 210 264 285 304 290 256 255 304 299 270 256 194 185 275 268 221 204 204 210 219
342 340 338 335 330 327 327 326 326 327 324 318 314 313 312 301 286 276 269 267 271 275 239 235 260 283 291 292 292 288 280 285 312 310 302 293 290 302 313 320 327 330 322 308 265 182 242 199 215 242 242 210 248 279 275 298 286 228 210 203 198 202 211 204 202 205 172 183 230 239 242 245 246 297 311 317 309 267 168 174 280 292 314 281 224 207 204
340 338 337 335 329 324 323 321 321 321 318 315 310 309 313 305 284 275 269 264 262 264 263 265 273 281 287 290 284 271 261 273 294 297 295 312 312 308 315 327 337 336 324 300 188 349 248 208 234 256 242 230 233 270 274 280 290 289 188 181 189 199 215 227 224 210 185 192 221 240 241 250 297 321 319 323 325 321 152 207 260 320 339 321 278 226 210
336 335 334 333 330 325 319 315 315 313 311 312 306 303 309 305 284 270 263 262 262 266 271 273 272 268 264 265 275 274 272 280 283 278 285 298 298 300 320 333 334 332 335 332 297 337 257 231 236 229 242 262 171 209 267 256 246 285 19 152 188 197 202 215 224 219 202 201 224 260 250 259 315 318 325 335 334 290 166 215 276 323 317 309 299 265 230
332 330 329 328 327 325 319 311 307 305 306 306 299 297 303 301 287 274 262 260 260 263 269 270 264 264 267 268 269 269 268 269 269 275 293 292 290 319 326 324 310 295 331 359 100 251 266 260 245 213 250 280 163 218 278 262 251 299 329 277 209 193 196 205 210 220 216 199 218 258 251 291 329 312 349 10 5 195 211 300 308 307 299 302 315 299 248
329 328 326 325 324 323 318 310 302 297 297 298 294 292 294 295 287 276 264 260 262 270 276 276 271 269 268 262 260 263 264 259 251 245 255 265 297 327 327 321 310 323 316 299 110 329 285 283 312 312 271 274 258 280 301 280 268 267 270 275 250 205 223 214 198 209 216 195 204 228 227 281 332 313 0 37 34 257 299 310 305 307 311 318 333 327 269
329 327 326 324 321 319 314 308 300 291 286 287 288 287 288 290 286 274 269 266 265 271 280 283 279 274 270 265 263 263 260 256 254 250 252 263 279 299 303 302 330 342 348 9 330 277 258 311 313 294 290 301 273 277 316 303 286 249 217 247 263 222 214 211 205 210 201 194 203 202 190 178 26 29 148 93 22 326 329 318 305 322 344 346 343 343 310
329 328 327 325 320 316 309 304 299 292 280 275 277 279 281 284 285 283 281 274 266 265 272 280 283 280 276 273 272 269 266 266 267 263 258 261 263 251 251 272 282 268 258 301 308 226 238 285 291 291 292 278 254 274 279 277 295 307 203 221 255 248 258 303 280 254 239 225 203 145 138 124 89 92 113 88 46 18 359 340 323 340 359 359 356 6 38
329 328 328 325 322 316 308 302 298 293 283 273 268 268 272 278 282 282 282 278 274 276 281 285 286 284 281 280 280 278 272 266 265 261 252 248 253 252 250 253 256 255 247 238 232 241 260 242 249 278 286 261 260 304 270 235 265 303 297 267 271 279 289 304 301 274 269 255 150 129 128 128 116 103 89 69 52 35 14 358 355 7 11 11 15 29 53
330 329 328 326 324 318 310 303 296 288 282 275 266 264 269 274 275 277 279 278 280 288 292 289 283 284 292 302 305 287 267 254 258 265 253 239 236 243 247 244 241 242 244 245 249 252 246 235 247 259 256 222 156 223 257 256 260 275 290 286 277 289 305 306 274 266 263 232 155 135 135 137 128 100 73 58 51 41 19 5 13 24 20 21 47 74 81
330 329 328 326 324 320 314 308 298 286 279 275 269 266 268 268 268 271 272 271 276 285 295 294 287 286 301 311 300 292 290 283 277 273 260 243 237 238 244 248 247 247 257 271 272 256 246 250 251 262 269 228 172 197 242 248 247 278 307 286 267 319 346 342 289 271 263 220 162 152 144 119 93 81 68 54 49 43 21 7 18 36 36 38 60 80 83
330 330 328 325 322 320 318 312 300 287 276 270 267 264 265 267 269 267 264 265 270 269 265 275 280 284 299 306 304 303 302 296 283 270 262 253 249 251 254 258 260 260 262 270 271 260 257 258 233 260 270 211 182 205 237 249 272 286 281 264 260 280 303 300 276 278 271 233 186 169 154 91 69 75 73 61 47 40 28 17 16 23 41 68 77 81 80
332 332 329 325 322 320 319 316 306 292 276 266 264 262 262 266 267 265 262 258 256 258 257 260 273 290 302 304 307 314 308 296 281 264 257 252 250 254 255 254 255 256 256 261 264 261 259 255 242 252 253 231 226 237 234 249 267 262 260 265 263 262 259 245 258 269 255 217 195 183 168 113 89 91 80 65 47 32 41 50 32 16 18 68 97 97 91
333 331 328 326 324 320 318 318 313 299 280 266 264 264 265 267 268 269 267 256 244 244 258 272 282 294 302 303 312 328 324 305 282 258 251 246 241 243 246 246 247 248 247 246 251 249 235 237 245 245 236 236 247 247 238 248 253 243 254 258 246 235 239 239 236 253 268 259 212 176 147 122 136 111 81 62 42 28 52 63 53 27 11 33 88 99 95
333 330 324 323 323 319 315 315 315 309 293 268 259 264 272 275 273 270 268 259 247 246 256 274 284 285 289 302 315 326 330 314 296 274 259 252 242 237 238 240 240 241 239 234 233 238 238 243 247 246 233 214 215 255 251 235 238 249 255 253 248 247 253 255 252 260 274 266 213 159 132 122 129 115 94 78 66 82 74 64 57 46 26 31 63 85 90
335 332 325 319 317 315 311 306 306 310 304 275 256 263 279 285 277 259 257 256 244 238 243 262 281 277 284 297 305 315 329 327 310 278 259 252 244 240 241 239 239 239 233 227 230 238 241 241 244 245 236 220 210 258 250 216 247 262 254 253 256 258 262 261 255 250 254 252 207 153 134 129 125 116 111 116 126 109 85 75 62 54 51 50 60 73 83
336 335 330 320 312 311 310 302 294 297 297 281 261 252 264 281 274 247 240 236 225 225 230 246 270 283 290 294 298 313 328 327 310 279 262 248 240 240 239 236 238 233 223 222 230 235 240 245 246 247 236 223 217 237 246 226 260 268 262 267 270 269 272 271 264 258 252 224 164 137 129 129 127 121 120 126 132 121 103 97 81 61 66 66 64 68 79
337 337 336 326 316 314 315 305 287 283 287 286 278 270 270 280 285 278 264 241 221 218 223 249 282 285 285 293 304 317 325 322 306 289 272 248 238 235 228 227 233 232 222 220 222 224 235 239 237 245 244 231 221 232 244 230 247 262 266 272 273 273 275 274 270 271 251 164 139 124 121 131 134 130 131 136 139 136 125 119 117 106 89 80 72 68 72
339 341 342 337 329 327 326 314 295 285 283 284 288 290 291 291 288 278 266 246 224 219 218 239 294 264 261 295 309 319 327 324 311 303 283 243 224 220 219 224 229 228 222 217 211 214 228 224 220 242 246 230 217 235 257 242 249 257 263 269 272 275 277 269 258 255 207 161 151 142 144 147 141 135 136 139 139 138 134 132 134 128 110 99 91 84 80
342 346 348 348 346 343 335 323 307 291 277 276 286 299 309 307 292 273 254 236 223 222 223 231 257 262 280 298 305 312 327 327 320 316 301 233 213 218 228 224 220 217 215 216 218 227 230 215 219 252 242 216 211 238 257 254 261 270 283 295 297 293 288 266 237 224 195 181 185 166 150 145 138 133 134 133 132 135 138 142 145 130 108 101 100 97 93
345 349 352 356 358 352 342 335 328 310 287 282 292 302 307 309 305 280 247 230 220 215 224 228 232 263 298 297 289 308 327 327 314 291 291 271 248 254 250 215 207 207 208 215 226 237 228 222 236 246 228 205 218 236 257 279 295 302 305 305 304 300 284 241 229 220 193 181 170 149 143 142 137 134 133 132 135 137 135 137 142 127 104 97 96 96 94
349 352 356 0 3 357 346 344 343 332 313 304 306 310 313 315 314 285 233 217 210 202 208 223 224 244 283 284 294 311 320 327 328 300 282 281 283 281 265 233 236 221 207 211 230 238 231 238 243 240 240 230 221 253 296 301 302 301 297 297 311 325 286 230 203 173 163 157 145 136 135 135 131 130 130 130 133 135 131 127 126 118 107 102 99 96 94
351 354 358 2 3 359 351 346 342 333 322 313 308 310 316 321 320 194 190 201 210 220 232 242 241 246 246 254 287 304 314 330 339 328 299 283 295 306 309 285 271 282 261 236 249 281 279 273 268 263 259 259 281 296 301 298 293 291 292 308 16 20 339 192 155 139 138 137 133 130 128 125 123 126 127 126 126 127 124 119 115 111 109 106 102 99 97
353 356 360 3 3 360 351 342 336 330 325 322 315 306 300 294 181 161 169 187 212 228 230 232 251 253 242 242 263 274 294 334 335 321 337 352 333 318 318 298 280 321 304 252 302 321 306 280 272 284 279 293 304 306 310 311 310 316 348 44 51 42 56 137 145 140 136 133 131 130 126 121 119 120 119 117 117 115 111 108 104 102 102 100 99 98 97
355 357 359 1 359 354 347 342 338 335 333 337 342 320 270 246 199 172 176 181 203 221 218 227 244 235 216 219 266 274 269 287 320 305 333 3 1 349 327 331 340 329 283 259 2 357 334 258 291 322 294 291 311 326 344 355 359 18 50 63 59 55 69 102 127 132 131 132 133 131 127 122 120 118 115 114 114 110 105 103 101 101 101 101 99 97 96
358 358 357 354 353 354 354 351 347 344 341 338 335 329 297 252 239 204 184 186 198 203 209 234 253 236 220 221 256 288 267 237 265 308 341 1 360 354 344 348 354 343 289 270 2 12 353 257 279 317 297 306 340 357 359 1 16 49 70 70 62 60 68 81 95 105 113 118 119 120 120 118 117 116 115 115 114 111 108 106 106 106 106 105 100 97 96
356 354 350 348 352 358 1 360 355 347 341 343 342 340 329 284 265 246 207 240 253 220 217 230 254 251 228 221 221 236 255 255 269 318 11 359 346 347 326 320 337 336 288 265 323 10 323 273 287 274 275 324 12 24 17 19 41 66 79 79 75 71 74 81 88 97 106 109 109 111 114 114 114 114 115 115 114 114 114 114 114 112 110 106 102 101 102
352 349 345 348 359 3 0 1 359 350 338 351 355 333 280 301 305 299 222 259 301 297 257 243 265 304 265 216 211 218 231 235 244 42 28 339 351 4 303 285 332 356 293 285 306 340 311 317 346 52 153 115 57 47 40 38 48 59 67 74 79 83 85 85 87 96 106 111 112 113 114 113 111 112 114 114 113 112 111 111 109 107 107 107 107 106 103
353 350 347 355 7 6 359 357 359 357 359 29 360 348 344 344 335 327 333 332 329 328 328 325 327 336 348 197 207 214 209 200 175 105 127 238 3 20 332 316 350 334 316 331 346 356 5 5 7 22 43 53 54 54 54 53 54 58 63 68 73 79 84 86 89 95 101 104 106 107 107 106 106 108 109 109 107 104 102 99 97 98 102 104 102 99 94
355 356 358 8 9 2 354 349 353 356 13 39 359 352 340 337 337 338 341 340 336 332 335 339 340 345 359 15 25 96 148 210 225 206 191 224 271 343 4 5 336 300 331 12 4 325 357 24 23 22 26 32 36 42 48 53 54 55 59 63 67 70 73 77 80 82 86 91 96 98 97 97 98 99 98 97 96 96 94 92 91 93 95 95 93 92 93
359 357 4 25 15 2 359 354 351 359 13 11 354 353 336 334 336 328 325 329 328 328 336 342 345 349 358 8 21 41 27 352 300 289 342 329 346 357 348 338 332 338 11 23 5 9 33 35 29 26 26 28 34 42 50 57 61 62 62 64 66 68 71 74 77 78 80 85 92 96 96 94 93 92 91 91 91 92 91 90 90 92 92 92 92 91 91
6 3 14 49 21 0 1 359 345 359 357 328 329 328 317 308 304 308 323 333 334 333 337 342 345 352 4 15 27 21 4 0 6 340 339 351 35 357 338 326 347 2 17 27 28 38 47 35 29 32 30 32 42 53 59 64 70 72 71 69 70 71 73 75 78 80 81 81 84 90 93 93 92 92 92 91 90 90 91 91 92 93 93 93 93 92 91
14 13 29 52 12 358 11 5 339 332 323 322 329 336 337 332 331 340 350 354 352 352 354 354 354 7 18 22 27 17 4 2 7 350 351 10 74 337 353 23 17 1 12 29 29 36 40 25 31 38 40 42 51 59 63 66 71 74 74 74 73 74 75 76 78 82 85 84 84 87 91 94 95 95 94 92 92 92 92 93 93 94 93 94 94 93 92
23 18 30 41 12 340 342 333 334 344 352 353 354 359 6 9 5 4 9 14 14 13 12 8 1 11 21 18 20 18 357 358 9 3 351 357 8 348 7 27 16 351 7 23 24 26 26 25 34 44 51 54 56 59 60 63 67 71 73 76 76 77 79 79 80 84 88 90 89 90 93 95 96 95 95 96 96 95 96 96 95 94 93 92 91 90 88
40 38 35 30 20 354 349 345 345 358 7 9 10 12 16 17 12 9 15 24 29 28 25 21 17 15 357 352 1 20 7 3 12 359 349 8 32 24 10 18 15 8 11 15 9 9 17 28 41 52 57 58 60 61 62 65 68 69 72 75 78 79 80 81 83 86 89 91 91 92 93 95 95 96 97 98 97 97 98 98 95 92 90 88 87 86 85
47 46 38 30 18 352 353 359 7 7 5 7 10 12 13 13 11 13 20 29 34 37 38 33 29 29 4 339 2 35 19 4 5 6 12 24 34 17 13 29 29 16 9 5 5 10 20 36 52 59 60 62 65 66 65 68 70 71 73 76 80 81 82 83 85 88 90 91 93 94 94 94 94 96 97 98 97 96 94 92 89 88 88 86 85 85 84
41 42 34 31 29 19 9 14 22 10 359 1 6 11 14 14 13 17 27 36 40 42 38 16 0 9 20 21 28 17 339 338 355 20 24 23 19 18 29 37 29 9 4 8 14 23 33 47 59 65 66 70 74 74 73 74 73 72 72 76 79 82 84 85 87 89 91 91 93 94 95 95 96 97 97 98 97 93 89 86 85 85 85 84 83 84 84
33 29 27 31 34 36 37 34 24 14 14 16 17 21 24 22 21 28 40 45 44 39 22 356 359 37 43 17 4 341 331 351 19 30 24 18 15 18 20 16 14 16 18 20 27 37 48 57 65 70 73 74 77 79 78 77 75 73 73 75 77 78 80 81 83 87 90 90 90 91 92 93 94 95 93 92 91 88 87 88 87 85 86 87 87 86 86